Total_Precipitation_Accumulation
1.91 1.88 2.61 3.66 4.29 3.84 3.44 2.79 2.25 1.92 1.59 1.25 0.99 0.97 1.43 1.97 2.53 2.94 2.83 2.57 1.98 1.69 1.79 2.59 3.27 2.92 2.54 2.42 2.53 2.80 2.71 2.67 2.50 2.45 2.31 2.14 1.84 1.71 1.67 1.49 1.41 1.43 1.32 1.22 1.27 1.46 1.40 1.39 1.45
1.80 2.53 3.46 4.48 4.19 3.43 3.26 2.63 2.21 1.76 1.19 0.95 0.75 0.77 0.99 1.03 1.00 1.55 2.68 2.74 1.86 1.52 1.61 2.19 3.18 2.82 2.65 2.61 2.66 2.68 2.66 2.73 2.54 2.40 2.21 2.03 1.83 1.82 1.84 1.82 1.79 1.63 1.40 1.31 1.30 1.47 1.40 1.29 1.39
1.95 3.21 4.38 4.44 3.36 3.01 3.20 2.56 1.85 1.32 0.90 0.88 0.82 0.71 0.89 1.20 1.28 1.98 2.78 2.37 1.70 1.46 1.59 2.47 3.22 2.85 2.68 2.66 2.65 2.54 2.63 2.71 2.52 2.29 2.05 1.86 1.87 2.13 2.17 2.04 1.91 1.67 1.46 1.34 1.32 1.39 1.41 1.31 1.29
2.36 3.61 3.84 3.41 3.04 2.57 2.36 2.08 1.56 1.48 1.10 0.78 0.76 0.82 0.81 1.20 1.46 1.94 2.14 1.87 1.67 1.66 1.68 2.49 3.25 3.01 2.77 2.67 2.59 2.55 2.62 2.73 2.66 2.35 2.05 1.89 1.91 2.00 2.02 1.94 1.81 1.61 1.45 1.34 1.39 1.41 1.37 1.33 1.27
2.80 3.47 3.49 3.08 2.87 2.51 1.85 1.63 1.45 1.62 1.45 0.96 0.77 1.05 1.24 1.65 1.77 1.82 1.85 1.84 1.59 1.61 1.68 2.17 2.94 2.89 2.70 2.59 2.54 2.67 2.72 2.70 2.67 2.43 2.11 1.99 1.97 1.94 1.98 1.89 1.76 1.48 1.40 1.36 1.46 1.47 1.39 1.29 1.28
3.11 3.14 3.40 3.24 3.04 2.62 2.08 1.69 1.52 1.53 1.35 1.01 0.94 1.18 1.58 2.16 2.18 2.07 1.79 1.81 1.76 1.62 1.59 1.89 2.52 2.77 2.68 2.65 2.58 2.66 2.72 2.69 2.54 2.21 2.03 1.92 1.96 1.99 1.99 1.88 1.76 1.51 1.46 1.44 1.40 1.41 1.37 1.33 1.34
2.98 2.99 2.96 2.72 2.95 3.14 2.46 1.64 1.66 1.56 1.47 1.21 0.94 1.29 1.65 2.34 2.17 2.06 1.91 1.86 1.93 1.83 1.80 1.93 2.24 2.47 2.85 2.91 2.76 2.76 2.80 2.72 2.50 2.12 2.02 1.93 1.90 1.79 1.80 1.79 1.69 1.54 1.51 1.41 1.32 1.32 1.32 1.39 1.41
2.34 2.43 2.37 2.44 2.84 3.03 2.18 1.36 1.23 1.43 1.47 1.00 0.85 1.22 1.62 2.00 1.94 2.01 2.06 2.05 1.96 1.90 1.88 1.81 1.96 2.08 2.38 2.60 2.85 2.96 2.89 2.77 2.58 2.19 2.04 1.96 1.89 1.73 1.67 1.55 1.56 1.54 1.56 1.57 1.43 1.37 1.38 1.46 1.49
2.17 2.53 2.66 2.82 2.69 2.48 1.68 1.38 1.21 1.09 1.16 0.98 0.87 1.00 1.40 1.48 1.62 1.96 2.17 2.15 1.90 1.73 1.65 1.58 1.67 1.82 2.04 2.30 2.51 2.82 2.79 2.70 2.49 2.13 2.06 2.00 1.79 1.51 1.48 1.42 1.74 1.65 1.66 1.66 1.62 1.60 1.55 1.47 1.39
2.26 2.66 2.63 2.26 1.79 1.69 1.45 1.29 1.21 1.15 1.25 1.21 1.09 1.15 1.48 1.66 1.72 1.88 1.94 1.84 1.66 1.71 1.57 1.41 1.45 1.58 1.71 1.87 2.39 2.49 2.17 2.02 1.85 1.96 1.91 1.84 1.79 1.60 1.22 1.38 1.80 1.90 1.87 1.68 1.61 1.67 1.44 1.10 0.95
1.79 2.02 1.76 1.73 1.38 1.21 1.23 1.18 1.07 1.27 1.46 1.22 1.20 1.28 1.60 1.80 1.71 1.75 1.72 1.59 1.52 1.48 1.40 1.30 1.31 1.28 1.29 1.49 1.85 2.09 2.11 2.04 1.84 1.72 1.68 1.74 1.66 1.45 1.23 1.32 1.44 1.44 1.38 1.26 1.27 1.19 0.96 0.87 0.93
1.55 1.47 1.26 1.38 1.20 1.18 1.23 1.12 1.08 1.15 1.24 0.96 1.04 1.25 1.57 1.74 1.72 1.64 1.54 1.48 1.38 1.28 1.24 1.17 1.11 1.08 1.05 1.16 1.27 1.39 1.64 1.73 1.68 1.45 1.30 1.36 1.47 1.41 1.23 1.24 1.27 1.29 1.25 1.31 1.29 1.21 1.07 1.02 1.01
1.70 1.51 1.31 1.26 1.20 1.15 1.12 1.09 1.01 0.99 0.92 0.93 1.04 1.36 1.66 1.88 1.98 1.92 1.63 1.36 1.23 1.24 1.22 1.11 0.97 0.98 1.00 1.10 1.18 1.10 1.32 1.48 1.54 1.48 1.27 1.19 1.23 1.27 1.21 1.09 1.18 1.20 1.18 1.18 1.18 1.14 1.17 1.24 1.21
1.56 1.42 1.39 1.36 1.23 1.08 1.12 1.07 1.00 1.16 1.02 1.03 1.09 1.28 1.41 1.60 1.67 1.62 1.58 1.33 1.14 1.11 1.17 1.09 1.02 1.06 1.03 0.99 1.04 1.05 1.11 1.24 1.25 1.36 1.31 1.25 1.21 1.19 1.19 1.16 1.22 1.26 1.26 1.20 1.12 1.07 1.21 1.25 1.28
1.24 1.49 1.52 1.42 1.26 1.14 1.07 1.30 1.18 1.22 1.16 1.22 1.21 1.19 1.28 1.36 1.43 1.34 1.22 1.05 1.02 1.00 0.98 0.93 0.93 1.02 1.03 1.02 1.03 1.03 1.16 1.21 1.20 1.22 1.18 1.27 1.22 1.20 1.21 1.22 1.25 1.26 1.32 1.32 1.29 1.24 1.30 1.32 1.40
1.38 1.71 1.95 1.57 1.34 1.28 1.34 1.60 1.36 1.32 1.31 1.20 1.15 1.16 1.18 1.25 1.35 1.34 1.23 1.01 0.94 0.89 0.87 0.86 0.75 0.87 1.01 1.10 1.15 1.24 1.30 1.30 1.32 1.22 1.14 1.14 1.13 1.14 1.22 1.24 1.27 1.34 1.32 1.36 1.44 1.45 1.50 1.51 1.55
1.68 1.72 1.68 1.61 1.32 1.31 1.37 1.42 1.29 1.34 1.30 1.13 1.02 1.01 0.97 1.04 1.10 1.12 1.14 1.05 0.96 0.90 0.90 0.92 0.85 0.90 1.02 1.08 1.23 1.33 1.42 1.50 1.58 1.49 1.45 1.39 1.26 1.28 1.39 1.45 1.43 1.45 1.50 1.51 1.42 1.43 1.54 1.67 1.66
1.54 1.25 1.27 1.36 1.23 1.17 1.23 1.13 1.13 1.25 1.25 1.14 0.98 0.91 0.84 0.88 0.90 0.90 0.96 1.01 1.00 0.96 0.94 0.99 1.05 1.07 1.20 1.36 1.58 1.80 1.93 2.06 2.16 2.08 1.97 1.79 1.56 1.52 1.69 1.74 1.61 1.63 1.75 1.85 1.71 1.79 1.69 1.62 1.70
0.95 0.92 0.98 0.94 0.86 0.96 0.94 0.94 0.97 0.99 1.04 0.97 0.81 0.78 0.80 0.78 0.80 0.82 0.86 0.94 0.98 0.97 0.95 0.94 1.00 1.10 1.21 1.42 1.73 2.24 2.52 2.60 2.47 2.42 2.32 2.11 1.87 1.85 2.04 2.07 2.05 2.05 2.07 2.04 1.96 2.14 2.10 1.82 1.72
0.81 0.89 0.89 0.85 0.76 0.81 0.77 0.76 0.75 0.75 0.73 0.70 0.63 0.62 0.72 0.72 0.81 0.80 0.79 0.82 0.84 0.83 0.86 1.01 1.06 1.12 1.23 1.48 1.78 2.16 2.58 2.64 2.57 2.46 2.36 2.26 2.13 2.08 2.12 2.35 2.47 2.43 2.62 2.64 2.41 2.52 2.55 2.17 1.94
0.77 0.83 0.83 0.91 0.88 0.77 0.72 0.79 0.76 0.68 0.60 0.53 0.50 0.53 0.60 0.60 0.67 0.73 0.78 0.80 0.78 0.75 0.72 0.85 1.02 1.22 1.50 1.78 2.07 2.25 2.54 2.64 2.63 2.49 2.42 2.43 2.37 2.25 2.32 2.43 2.59 2.59 2.67 2.88 3.00 2.89 2.96 2.75 2.32
0.81 0.58 0.55 0.65 0.96 1.03 0.77 0.95 0.77 0.62 0.65 0.58 0.53 0.50 0.53 0.56 0.60 0.64 0.73 0.78 0.74 0.69 0.67 0.76 0.91 1.20 1.59 1.93 2.15 2.41 2.77 2.87 2.71 2.62 2.52 2.52 2.52 2.50 2.61 2.62 2.69 2.70 2.71 2.82 2.98 2.96 3.14 3.26 2.84
0.59 0.51 0.52 0.59 0.80 0.88 0.69 0.72 0.71 0.61 0.67 0.64 0.56 0.54 0.50 0.49 0.48 0.54 0.57 0.61 0.65 0.72 0.75 0.83 1.03 1.31 1.63 1.85 2.11 2.45 2.65 2.75 2.81 2.68 2.62 2.60 2.63 2.63 2.68 2.74 2.87 2.85 2.82 2.75 2.97 3.06 3.17 3.13 3.08
0.44 0.57 0.67 0.68 0.82 0.89 0.51 0.57 0.70 0.60 0.48 0.49 0.52 0.52 0.47 0.44 0.43 0.50 0.58 0.64 0.71 0.77 0.89 1.00 1.17 1.36 1.61 1.83 2.10 2.25 2.44 2.58 2.63 2.66 2.59 2.54 2.58 2.68 2.56 2.48 2.67 2.73 2.74 2.70 2.86 3.00 3.15 3.13 3.18
0.49 0.83 1.18 1.17 1.14 0.89 0.44 0.55 0.68 0.48 0.37 0.40 0.44 0.47 0.44 0.46 0.52 0.62 0.73 0.86 0.97 1.01 1.08 1.19 1.30 1.48 1.63 1.74 1.90 2.00 2.10 2.21 2.18 2.32 2.37 2.48 2.47 2.50 2.51 2.43 2.44 2.48 2.42 2.41 2.52 2.57 2.66 2.80 2.99
0.43 0.66 1.09 1.20 1.00 0.76 0.58 0.77 0.74 0.47 0.39 0.40 0.41 0.46 0.50 0.58 0.67 0.84 1.01 1.18 1.25 1.28 1.34 1.39 1.44 1.51 1.56 1.61 1.71 1.84 1.90 1.95 1.92 1.90 1.90 2.05 2.20 2.22 2.27 2.30 2.27 2.31 2.33 2.28 2.38 2.40 2.40 2.45 2.51
0.45 0.53 0.58 0.77 0.67 0.67 0.67 0.77 0.72 0.51 0.47 0.46 0.49 0.55 0.64 0.84 0.94 1.10 1.28 1.39 1.36 1.36 1.38 1.44 1.49 1.51 1.51 1.55 1.61 1.58 1.62 1.67 1.68 1.65 1.72 1.76 1.81 1.81 1.85 1.90 2.05 2.17 2.22 2.24 2.34 2.41 2.38 2.31 2.29
0.42 0.56 0.73 1.03 1.13 0.98 0.79 0.89 0.89 0.70 0.58 0.52 0.60 0.72 0.88 1.15 1.31 1.48 1.67 1.65 1.58 1.60 1.66 1.58 1.50 1.51 1.57 1.61 1.61 1.53 1.55 1.58 1.57 1.47 1.51 1.48 1.44 1.45 1.50 1.59 1.78 2.09 2.23 2.25 2.30 2.34 2.35 2.35 2.28
0.44 0.61 0.78 1.08 1.15 1.31 1.34 1.37 1.04 0.83 0.77 0.84 0.97 1.08 1.27 1.53 1.69 1.82 1.93 1.92 1.76 1.65 1.63 1.57 1.45 1.42 1.43 1.50 1.61 1.57 1.52 1.54 1.56 1.47 1.37 1.33 1.32 1.32 1.40 1.46 1.61 1.78 2.01 2.23 2.38 2.37 2.29 2.27 2.22
0.53 0.76 0.98 1.47 1.40 1.23 1.42 1.54 1.13 0.94 0.93 0.96 1.04 1.20 1.41 1.53 1.62 1.67 1.69 1.77 1.69 1.60 1.50 1.47 1.39 1.25 1.27 1.34 1.45 1.56 1.48 1.45 1.47 1.39 1.42 1.32 1.22 1.22 1.24 1.39 1.58 1.69 1.77 1.87 1.98 2.04 2.07 2.09 2.11